Ft Riley, KS

5:03 PM CDT on July 20, 2017 (GMT -0500)
Marshall Army Air Field

Weather History for KFRI - March, 2013

Change the Weather History Date:

Monday, March 18, 2013

  Actual Average (KMHK) Record (KMHK)
Temperature  
Mean Temperature 44 °F -  
Max Temperature 55 °F 54 °F 77 °F (2012)
Min Temperature 35 °F 29 °F 24 °F (2016)
Degree Days  
Heating Degree Days 20    
Moisture  
Dew Point 28 °F    
Average Humidity 67    
Maximum Humidity 100    
Minimum Humidity 23    
Precipitation  
Precipitation 0.00 in - - ()
Sea Level Pressure  
Sea Level Pressure 29.90 in    
Wind  
Wind Speed 6 mph (NW)    
Max Wind Speed 17 mph    
Max Gust Speed 25 mph    
Visibility 10 miles    
Events      
Averages and records for this station are not official NWS values.
T = Trace of Precipitation, MM = Missing Value Source: NWS Daily Summary

Daily Weather History Graph

Daily Weather History Graph

Search for Another Location

Airport or City:

Trip Planner

Search our weather history database for the weather conditions in past years. The results will help you decide how hot, cold, wet, or windy it might be!

Date:

Astronomy

Mar. 18, 2013 Rise Set
Actual Time 7:33 AM CDT 7:37 PM CDT
Civil Twilight 7:06 AM CDT 8:03 PM CDT
Nautical Twilight 6:35 AM CDT 8:35 PM CDT
Astronomical Twilight 6:04 AM CDT 9:06 PM CDT
Moon 11:36 AM CDT (3/18) 1:35 AM CDT (3/18)
Length of Visible Light 12h 57m
Length of Day
12h 04m
Waxing Crescent, 41% of the Moon is Illuminated
Mar 18
Waxing Crescent
Mar 19
First Quarter
Mar 27
Full
Apr 2
Last Quarter
Apr 10
New

Hourly Weather History & Observations

Time (CDT) Temp. Windchill Dew Point Humidity Pressure Visibility Wind Dir Wind Speed Gust Speed Precip Events Conditions
12:28 AM 35.6 °F 32.8 °F 35.6 °F 100% 29.77 in 10.0 mi Variable 3.5 mph - N/A   Light Drizzle
12:30 AM 35.6 °F 32.8 °F 35.6 °F 100% 29.78 in 10.0 mi SE 3.5 mph - N/A   Overcast
12:50 AM 35.6 °F - 35.6 °F 100% 29.80 in 10.0 mi SW 2.3 mph - N/A   Overcast
12:58 AM 35.1 °F - 35.1 °F 100% 29.81 in 10.0 mi SSW 2.3 mph - 0.00 in   Overcast
1:13 AM 35.6 °F - 35.6 °F 100% 29.80 in 10.0 mi West 2.3 mph - N/A   Overcast
1:58 AM 35.4 °F - 35.4 °F 100% 29.84 in 10.0 mi WNW 2.3 mph - N/A   Overcast
2:58 AM 35.4 °F 31.5 °F 35.4 °F 100% 29.79 in 10.0 mi East 4.6 mph - N/A   Overcast
3:18 AM 35.6 °F - 35.6 °F 100% 29.78 in 10.0 mi NE 2.3 mph - N/A   Overcast
3:58 AM 35.4 °F - 35.4 °F 100% 29.82 in 10.0 mi NW 2.3 mph - N/A   Overcast
4:03 AM 35.6 °F - 35.6 °F 100% 29.81 in 10.0 mi WNW 2.3 mph - N/A   Overcast
4:53 AM 35.6 °F 32.8 °F 35.6 °F 100% 29.81 in 9.0 mi West 3.5 mph - N/A   Overcast
4:58 AM 35.1 °F 30.1 °F 35.1 °F 100% 29.84 in 9.0 mi West 5.8 mph - N/A   Overcast
5:33 AM 35.6 °F 29.9 °F 35.6 °F 100% 29.83 in 10.0 mi West 6.9 mph - N/A   Overcast
5:58 AM 35.6 °F 29.2 °F 35.6 °F 100% 29.85 in 10.0 mi WSW 8.1 mph - N/A   Overcast
6:28 AM 35.6 °F 30.7 °F 35.6 °F 100% 29.84 in 10.0 mi West 5.8 mph - N/A   Mostly Cloudy
6:58 AM 36.1 °F 29.3 °F 36.1 °F 100% 29.88 in 10.0 mi West 9.2 mph - N/A   Overcast
7:13 AM 35.6 °F 29.2 °F 35.6 °F 100% 29.87 in 10.0 mi West 8.1 mph - N/A   Scattered Clouds
7:58 AM 35.2 °F 30.3 °F 35.2 °F 100% 29.91 in 7.0 mi West 5.8 mph - N/A   Clear
8:58 AM 39.4 °F 33.2 °F 33.6 °F 80% 29.93 in 10.0 mi NNW 9.2 mph 17.3 mph N/A   Clear
9:58 AM 41.0 °F 34.3 °F 29.8 °F 64% 29.95 in 10.0 mi NW 11.5 mph 25.3 mph N/A   Clear
10:58 AM 43.9 °F 38.8 °F 28.4 °F 55% 29.96 in 10.0 mi NNW 9.2 mph 16.1 mph N/A   Clear
11:58 AM 47.1 °F - 27.7 °F 47% 29.95 in 10.0 mi WNW 9.2 mph - N/A   Clear
12:58 PM 50.0 °F - 25.3 °F 38% 29.95 in 10.0 mi NW 12.7 mph 21.9 mph N/A   Clear
1:58 PM 51.8 °F - 23.2 °F 33% 29.96 in 10.0 mi NW 16.1 mph 23.0 mph N/A   Clear
2:48 PM 53.6 °F - 21.2 °F 28% 29.93 in 10.0 mi NNW 12.7 mph 20.7 mph N/A   Clear
2:54 PM 53.6 °F - 21.2 °F 28% 29.93 in 10.0 mi WNW 12.7 mph 20.7 mph N/A   Clear
2:55 PM 53.6 °F - 21.2 °F 28% 29.93 in 10.0 mi WNW 13.8 mph 20.7 mph N/A   Clear
2:58 PM 53.8 °F - 21.9 °F 29% 29.94 in 10.0 mi NW 15.0 mph 23.0 mph N/A   Clear
2:59 PM 53.6 °F - 23.0 °F 30% 29.93 in 10.0 mi NNW 12.7 mph 23.0 mph N/A   Clear
3:58 PM 54.7 °F - 20.1 °F 26% 29.94 in 10.0 mi NW 17.3 mph 23.0 mph N/A   Clear
4:58 PM 53.6 °F - 16.7 °F 23% 29.96 in 10.0 mi NW 16.1 mph 24.2 mph N/A   Clear
5:12 PM 53.6 °F - 17.6 °F 24% 29.95 in 10.0 mi WNW 15.0 mph 20.7 mph N/A   Clear
5:58 PM 52.5 °F - 18.9 °F 27% 29.97 in 10.0 mi WNW 11.5 mph 23.0 mph N/A   Clear
6:58 PM 50.5 °F - 18.1 °F 28% 29.99 in 10.0 mi NNW 12.7 mph 20.7 mph N/A   Clear
7:58 PM 46.0 °F 42.5 °F 18.1 °F 33% 30.01 in 10.0 mi North 6.9 mph - N/A   Clear
8:58 PM 41.5 °F 37.8 °F 18.5 °F 40% 30.03 in 10.0 mi North 5.8 mph - N/A   Clear
9:58 PM 35.8 °F 30.9 °F 18.3 °F 49% 30.06 in 10.0 mi NE 5.8 mph - N/A   Clear
10:58 PM 37.0 °F 34.5 °F 18.1 °F 46% 30.08 in 10.0 mi NNE 3.5 mph - N/A   Clear
11:58 PM 35.2 °F 32.4 °F 18.1 °F 50% 30.07 in 10.0 mi NE 3.5 mph - N/A   Clear